Content
SEND FEEDBACK

Daily
Averages
Monthly
Summary
United States of America

GARDINER, OREGON


Home > North America > United States > Oregon
Elevation: 173 feet     Latitude: 43 45N     Longitude: 124 07W

WEATHER
 
SELECT A DAY
Number of Records: 450,685;   Date Range: 1/1/95 - 10/29/14
 
SHARE

PRINT THIS DATA

[ ← Previous Day ]
WEATHER ALMANAC - JULY 22, 2014
[ Next Day → ]
[ °C ]   °F
Weather ElementAverageHighLow
Temperature59.1 °F64.4 °F (11:55 am)55.4 °F (3:15 am)
Dewpoint56.2 °F60.8 °F (10:35 am)53.6 °F (5:35 pm)
Humidity90.9 %100 % (12:35 am)68 % (5:35 pm)
Barometer30.07 in30.10 in (11:35 pm)30.05 in (3:55 am)
Wind Speed5.2 mph12.7 mph (3:35 pm)
Weather ElementAverage
Visibility8.4 mi
Wind DirectionSSW (192.1 °)

Weather ElementTotal
Precipitation---
Heating Degree Days5.1 (Base 65)
Growing Degree Days9.9 (Base 50)
Averaged from 68 records on July 22, 2014
WEATHER CONDITIONS BREAKOUT
WIND DIRECTION BREAKOUT
WEATHER BY HOUR - JULY 22, 2014
[ °C ]   °F
Local TimeTemperatureDewpointHumidityBarometerVisibilityWind DirectionWind SpeedGust SpeedPrecipitationEventsConditions
12:35 AM57.2 °F57.2 °F100 %30.07 in10.0 miCalmOvercast
12:55 AM57.2 °F57.2 °F100 %30.06 in10.0 miCalmMostly Cloudy
1:15 AM57.2 °F55.4 °F94 %30.06 in10.0 miCalmOvercast
1:35 AM57.2 °F55.4 °F94 %30.06 in10.0 miCalmOvercast
1:55 AM57.2 °F55.4 °F94 %30.06 in10.0 miCalmOvercast
2:15 AM57.2 °F55.4 °F94 %30.06 in10.0 miCalmOvercast
2:35 AM57.2 °F55.4 °F94 %30.06 in10.0 miWest (270°)4.6 mphOvercast
2:55 AM57.2 °F55.4 °F94 %30.06 in10.0 miWNW (290°)5.8 mphOvercast
3:15 AM55.4 °F55.4 °F100 %30.06 in8.0 miWest (280°)6.9 mphOvercast
3:35 AM55.4 °F55.4 °F100 %30.06 in5.0 miWest (280°)4.6 mphOvercast
3:55 AM55.4 °F55.4 °F100 %30.05 in1.5 miWest (270°)4.6 mphOvercast
4:15 AM55.4 °F55.4 °F100 %30.06 in5.0 miWest (280°)4.6 mphOvercast
4:35 AM55.4 °F55.4 °F100 %30.06 in6.0 miWest (280°)4.6 mphOvercast
4:55 AM55.4 °F55.4 °F100 %30.05 in7.0 miCalmOvercast
5:15 AM55.4 °F55.4 °F100 %30.05 in9.0 miCalmOvercast
5:35 AM55.4 °F55.4 °F100 %30.05 in10.0 miCalmOvercast
5:55 AM55.4 °F55.4 °F100 %30.05 in7.0 miCalmOvercast
6:15 AM55.4 °F55.4 °F100 %30.05 in8.0 miCalmOvercast
6:35 AM55.4 °F55.4 °F100 %30.05 in8.0 miCalmOvercast
6:55 AM55.4 °F55.4 °F100 %30.05 in7.0 miCalmOvercast
7:15 AM55.4 °F55.4 °F100 %30.06 in2.5 miWest (270°)3.5 mphOvercast
7:35 AM55.4 °F55.4 °F100 %30.07 in2.0 miWest (280°)3.5 mphOvercast
7:55 AM55.4 °F55.4 °F100 %30.07 in1.0 miWNW (290°)3.5 mphOvercast
8:15 AM55.4 °F55.4 °F100 %30.07 in0.8 miWNW (300°)4.6 mphOvercast
8:35 AM55.4 °F55.4 °F100 %30.08 in0.8 miWest (280°)5.8 mphOvercast
8:55 AM55.4 °F55.4 °F100 %30.08 in0.8 miWest (280°)3.5 mphOvercast
9:15 AM55.4 °F55.4 °F100 %30.08 in3.0 miWest (280°)3.5 mphOvercast
9:35 AM55.4 °F55.4 °F100 %30.08 in1.5 miWest (280°)3.5 mphOvercast
10:15 AM57.2 °F57.2 °F100 %30.08 in10.0 miCalmOvercast
10:35 AM60.8 °F60.8 °F100 %30.08 in10.0 miEast (100°)3.5 mphOvercast
10:55 AM60.8 °F60.8 °F100 %30.09 in10.0 miSE (130°)3.5 mphMostly Cloudy
11:15 AM62.6 °F60.8 °F94 %30.08 in10.0 miESE (110°)4.6 mphMostly Cloudy
11:35 AM62.6 °F60.8 °F94 %30.09 in10.0 miCalmOvercast
11:55 AM64.4 °F59.0 °F83 %30.09 in10.0 miWNW (290°)4.6 mphOvercast
12:15 PM64.4 °F57.2 °F77 %30.08 in10.0 miWNW (290°)5.8 mphMostly Cloudy
12:35 PM62.6 °F57.2 °F82 %30.08 in10.0 miWest (280°)6.9 mphMostly Cloudy
12:55 PM64.4 °F57.2 °F77 %30.08 in10.0 miWest (280°)8.1 mphMostly Cloudy
1:15 PM64.4 °F55.4 °F73 %30.08 in10.0 miWest (280°)10.4 mphOvercast
1:35 PM62.6 °F55.4 °F77 %30.08 in10.0 miWest (280°)10.4 mphOvercast
1:55 PM62.6 °F57.2 °F82 %30.08 in10.0 miWest (280°)10.4 mphOvercast
2:15 PM62.6 °F57.2 °F82 %30.08 in10.0 miWest (280°)10.4 mphOvercast
2:35 PM62.6 °F55.4 °F77 %30.08 in10.0 miWest (280°)10.4 mphOvercast
2:55 PM62.6 °F57.2 °F82 %30.08 in10.0 miWNW (290°)9.2 mphMostly Cloudy
3:15 PM62.6 °F57.2 °F82 %30.07 in10.0 miWNW (290°)11.5 mphPartly Cloudy
3:35 PM62.6 °F57.2 °F82 %30.08 in10.0 miWest (280°)12.7 mphClear
3:55 PM62.6 °F57.2 °F82 %30.07 in10.0 miWest (280°)11.5 mphMostly Cloudy
4:15 PM62.6 °F57.2 °F82 %30.07 in10.0 miWest (280°)11.5 mphPartly Cloudy
4:35 PM64.4 °F57.2 °F77 %30.07 in10.0 miWNW (290°)11.5 mphClear
4:55 PM62.6 °F55.4 °F77 %30.07 in10.0 miWest (280°)10.4 mphClear
5:15 PM64.4 °F55.4 °F73 %30.07 in10.0 miWest (270°)9.2 mphClear
5:35 PM64.4 °F53.6 °F68 %30.07 in10.0 miWest (280°)9.2 mphClear
5:55 PM64.4 °F57.2 °F77 %30.07 in10.0 miWest (270°)11.5 mphClear
6:15 PM64.4 °F55.4 °F73 %30.06 in10.0 miWest (270°)12.7 mphClear
6:35 PM64.4 °F53.6 °F68 %30.06 in10.0 miWest (270°)11.5 mphPartly Cloudy
7:15 PM62.6 °F53.6 °F72 %30.07 in10.0 miWest (260°)9.2 mphMostly Cloudy
7:35 PM62.6 °F55.4 °F77 %30.08 in10.0 miWSW (240°)6.9 mphScattered Clouds
7:55 PM60.8 °F55.4 °F82 %30.07 in10.0 miWSW (250°)11.5 mphMostly Cloudy
8:15 PM60.8 °F55.4 °F82 %30.08 in10.0 miWSW (250°)8.1 mphPartly Cloudy
8:35 PM59.0 °F57.2 °F94 %30.07 in10.0 miWest (260°)8.1 mphClear
8:55 PM59.0 °F57.2 °F94 %30.08 in10.0 miWest (270°)3.5 mphClear
9:15 PM57.2 °F57.2 °F100 %30.08 in10.0 miWest (270°)5.8 mphClear
9:35 PM55.4 °F53.6 °F94 %30.08 in10.0 miWest (260°)3.5 mphClear
9:55 PM55.4 °F55.4 °F100 %30.08 in10.0 miCalmClear
10:15 PM55.4 °F55.4 °F100 %30.08 in10.0 miCalmPartly Cloudy
10:35 PM57.2 °F57.2 °F100 %30.09 in10.0 miSouth (190°)4.6 mphMostly Cloudy
10:55 PM57.2 °F57.2 °F100 %30.09 in10.0 miSouth (190°)3.5 mphOvercast
11:35 PM57.2 °F57.2 °F100 %30.10 in10.0 miCalmOvercast
11:55 PM57.2 °F57.2 °F100 %30.10 in10.0 miSouth (180°)3.5 mphOvercast
Hourly data recorded from KOTH, located miles away from Gardiner, Oregon







STORIES FROM OUR PARTNERS